Date String (YYYY-MM-DD hh:mm:ss) UTC,Instrument flags,Ambient pressure (hPa),Sample flow (lpm),Bypass flow (lpm),Sample temperature (°C),Ambient temperature (°C),ASC tube jacket temperature (°C),LED temperature (°C),Box temperature (°C),Sample RH (%),Span deviation,Mass concentration (μg/m³),Mass concentration (μg/m³),Mass concentration (μg/m³)
DateTimeUTC,F1_M11,P_M11,Q1_M11,Q2_M11,T1_M11,T2_M11,T3_M11,T4_M11,T5_M11,U1_M11,ZSPAN_M11,X0_M11,X2_M11,X1_M11
2022-07-24 20:00:00,,0831.6,4.99,0.00,30.6,27.5,00.0,38.9,31.9,37.1,-001.8,0014.83,0010.14,0009.29
2022-07-24 20:01:00,,0831.6,5.00,0.00,30.8,27.2,00.0,38.9,32.0,35.2,-001.7,0014.63,0010.04,0009.23
2022-07-24 20:02:00,,0831.5,5.00,0.00,31.0,27.2,00.0,38.9,32.0,35.5,-001.7,0014.49,0009.83,0009.02
2022-07-24 20:03:00,,0831.4,5.02,0.00,31.3,27.3,00.0,38.9,32.0,35.3,-001.3,0014.42,0009.55,0008.79
2022-07-24 20:04:00,,0831.4,5.00,0.00,31.7,27.5,00.0,38.9,32.1,33.9,-000.5,0014.36,0009.29,0008.50
2022-07-24 20:05:00,,0831.2,5.00,0.00,31.9,27.7,00.0,39.0,32.1,33.6,-000.4,0014.81,0009.05,0008.21
2022-07-24 20:06:00,,0831.2,5.00,0.00,31.9,27.9,00.0,39.1,32.1,33.8,0000.0,0015.05,0008.81,0007.93
2022-07-24 20:07:00,,0831.2,5.00,0.00,32.0,28.0,00.0,39.2,32.1,33.5,0000.2,0015.18,0008.62,0007.68
2022-07-24 20:08:00,,0831.2,5.01,0.00,32.0,28.2,00.0,39.3,32.1,33.5,0000.6,0015.05,0008.44,0007.47
2022-07-24 20:09:00,,0831.2,4.99,0.00,31.9,28.3,00.0,39.4,32.1,33.9,0000.8,0014.87,0008.24,0007.25
2022-07-24 20:10:00,,0831.2,5.00,0.00,31.9,28.5,00.0,39.5,32.2,34.8,0001.3,0014.65,0008.03,0007.05
2022-07-24 20:11:00,,0831.2,5.01,0.00,32.0,28.6,00.0,39.6,32.3,35.1,0001.7,0014.46,0007.90,0006.90
2022-07-24 20:12:00,,0831.3,5.00,0.00,32.1,28.7,00.0,39.7,32.4,34.2,0001.5,0014.29,0007.83,0006.81
2022-07-24 20:13:00,,0831.2,5.00,0.00,32.2,28.7,00.0,39.7,32.5,33.9,0001.3,0013.92,0007.86,0006.79
2022-07-24 20:14:00,,0831.2,4.99,0.00,32.3,28.2,00.0,39.7,32.4,34.1,0001.2,0013.81,0007.98,0006.89
2022-07-24 20:15:00,,0831.2,5.00,0.00,32.2,27.5,00.0,39.7,32.3,33.9,0000.0,0013.66,0008.09,0007.03
2022-07-24 20:16:00,,0831.2,5.00,0.00,32.1,27.2,00.0,39.7,32.2,34.1,0000.0,0013.04,0008.14,0007.14
2022-07-24 20:17:00,,0831.2,5.01,0.00,32.0,27.2,00.0,39.7,32.0,34.4,0000.3,0012.67,0008.20,0007.23
2022-07-24 20:18:00,,0831.2,4.99,0.00,31.8,27.3,00.0,39.8,32.0,34.8,0000.0,0012.49,0008.26,0007.32
2022-07-24 20:19:00,,0831.2,5.01,0.00,31.8,27.5,00.0,39.8,32.0,35.3,0000.0,0012.48,0008.31,0007.40
2022-07-24 20:20:00,,0831.1,5.00,0.00,31.9,27.7,00.0,39.8,32.1,35.2,0000.0,0012.47,0008.32,0007.41
2022-07-24 20:21:00,,0831.1,5.00,0.00,32.2,27.8,00.0,39.8,32.3,35.2,0000.0,0012.37,0008.28,0007.38
2022-07-24 20:22:00,,0831.2,4.99,0.00,32.5,28.0,00.0,39.8,32.5,34.9,0000.0,0012.22,0008.19,0007.33
2022-07-24 20:23:00,,0831.2,5.01,0.00,32.7,28.2,00.0,39.8,32.6,34.4,0000.0,0012.35,0008.17,0007.27
2022-07-24 20:24:00,,0831.2,5.00,0.00,32.8,28.3,00.0,39.9,32.5,34.3,0000.0,0012.18,0008.11,0007.23
2022-07-24 20:25:00,,0831.2,5.00,0.00,32.9,28.4,00.0,40.0,32.5,34.3,0000.0,0012.17,0008.05,0007.18
2022-07-24 20:26:00,,0831.2,5.00,0.00,32.9,28.6,00.0,40.1,32.5,34.3,0000.2,0012.52,0008.03,0007.15
2022-07-24 20:27:00,,0831.2,5.00,0.00,32.8,28.7,00.0,40.2,32.5,34.5,0000.5,0013.09,0008.09,0007.14
2022-07-24 20:28:00,,0831.1,4.99,0.00,32.8,28.8,00.0,40.3,32.6,34.6,0000.0,0013.37,0008.08,0007.13
2022-07-24 20:29:00,,0831.2,5.00,0.00,32.8,28.8,00.0,40.3,32.6,34.7,0000.0,0013.47,0008.12,0007.11
2022-07-24 20:30:00,,0831.1,5.01,0.00,32.7,28.3,00.0,40.3,32.6,35.0,0000.0,0013.61,0008.17,0007.13
2022-07-24 20:31:00,,0831.0,4.99,0.00,32.7,27.6,00.0,40.3,32.5,35.1,0000.0,0014.02,0008.25,0007.17
2022-07-24 20:32:00,,0831.1,4.99,0.00,32.9,27.3,00.0,40.2,32.6,34.7,0000.0,0014.33,0008.36,0007.21
2022-07-24 20:33:00,,0831.2,4.99,0.00,32.8,27.3,00.0,40.3,32.4,34.4,0000.0,0014.48,0008.42,0007.25
2022-07-24 20:34:00,,0831.2,5.00,0.00,32.8,27.4,00.0,40.3,32.4,34.2,0000.0,0014.35,0008.43,0007.30
2022-07-24 20:35:00,,0831.2,5.00,0.00,32.7,27.5,00.0,40.3,32.3,34.2,-000.1,0014.43,0008.47,0007.32
2022-07-24 20:36:00,,0831.2,5.00,0.00,32.6,27.7,00.0,40.3,32.3,34.6,-000.1,0014.52,0008.54,0007.33
2022-07-24 20:37:00,,0831.2,5.01,0.00,32.5,27.9,00.0,40.3,32.3,35.0,0000.0,0014.19,0008.51,0007.29
2022-07-24 20:38:00,,0831.3,4.99,0.00,32.6,28.1,00.0,40.3,32.4,34.8,0000.0,0013.98,0008.45,0007.26
2022-07-24 20:39:00,,0831.3,5.00,0.00,32.6,28.2,00.0,40.4,32.5,34.5,0000.0,0013.79,0008.36,0007.20
2022-07-24 20:40:00,,0831.3,5.01,0.00,32.6,28.4,00.0,40.4,32.5,34.4,0000.0,0013.61,0008.25,0007.11
2022-07-24 20:41:00,,0831.4,5.00,0.00,32.6,28.5,00.0,40.4,32.5,34.0,0000.0,0013.47,0008.14,0006.99
2022-07-24 20:42:00,,0831.4,5.00,0.00,32.5,28.6,00.0,40.4,32.5,34.1,0000.0,0013.41,0008.05,0006.89
2022-07-24 20:43:00,,0831.4,4.99,0.00,32.5,28.7,00.0,40.4,32.5,34.3,0000.0,0013.06,0007.94,0006.82
2022-07-24 20:44:00,,0831.4,5.01,0.00,32.4,28.8,00.0,40.4,32.6,34.4,0000.0,0012.80,0007.82,0006.76
2022-07-24 20:45:00,,0831.4,5.01,0.00,32.4,28.8,00.0,40.4,32.6,34.7,0000.0,0012.76,0007.75,0006.68
2022-07-24 20:46:00,,0831.3,4.99,0.00,32.3,28.6,00.0,40.4,32.6,34.5,0000.0,0012.66,0007.64,0006.60
2022-07-24 20:47:00,,0831.3,5.01,0.00,32.3,27.9,00.0,40.3,32.5,34.4,0000.0,0012.50,0007.54,0006.52
2022-07-24 20:48:00,,0831.2,5.00,0.00,32.2,27.3,00.0,40.2,32.4,34.4,0000.0,0012.31,0007.42,0006.44
2022-07-24 20:49:00,,0831.2,5.01,0.00,32.1,27.2,00.0,40.2,32.2,34.4,0000.0,0012.22,0007.36,0006.37
2022-07-24 20:50:00,,0831.2,4.99,0.00,31.9,27.2,00.0,40.2,32.1,34.7,0000.0,0011.71,0007.28,0006.28
2022-07-24 20:51:00,,0831.1,5.02,0.00,31.8,27.4,00.0,40.2,32.1,35.3,0000.0,0012.09,0007.26,0006.22
2022-07-24 20:52:00,,0831.2,4.99,0.00,31.9,27.5,00.0,40.1,32.2,34.1,0000.0,0011.99,0007.17,0006.14
2022-07-24 20:53:00,,0831.2,5.00,0.00,31.9,27.7,00.0,40.1,32.2,33.9,0000.0,0011.72,0007.04,0006.02
2022-07-24 20:54:00,,0831.1,5.00,0.00,31.9,27.9,00.0,40.0,32.2,33.5,0000.0,0011.58,0006.93,0005.90
2022-07-24 20:55:00,,0831.0,4.99,0.00,31.9,28.0,00.0,40.0,32.2,33.4,0000.0,0011.64,0006.87,0005.78
2022-07-24 20:56:00,,0830.9,5.01,0.00,31.9,28.1,00.0,40.0,32.2,33.5,0000.0,0011.50,0006.74,0005.67
2022-07-24 20:57:00,,0830.9,5.00,0.00,31.8,28.3,00.0,40.0,32.2,33.4,0000.0,0011.30,0006.62,0005.54
2022-07-24 20:58:00,,0830.9,5.00,0.00,31.8,28.3,00.0,40.0,32.2,33.4,0000.0,0011.12,0006.49,0005.41
2022-07-24 20:59:00,,0830.9,5.00,0.00,31.7,28.4,00.0,40.0,32.2,33.2,0000.0,0011.00,0006.34,0005.29
